[[{"header":{"parameterUnit":"m.s-1","parameterCategory":1,"la1":30.2991,"la2":30.254,"lo1":-89.0895,"lo2":-89.0444,"dy":0.0017,"dx":0.0017,"nx":28,"ny":28,"refTime":"2024-06-15T09:00:00:Z","depth":0,"parameterNumber":2,"parameterNumberName":"U-component_of_WINDS"},"data":[0,0,0,0,0,0,0,0,0,0,0,0,0,0,0,0,0,0,0,0,0,0,0,0,0,0,0,0,0,0,0,0,0,0,0,0,0,0,0,0,0,0,0,0,0,0,0,0,0,0,0,0,0,0,0,0,0,0,-5.2173,-5.2174,0,-5.2282,-5.2284,-5.2285,-5.2232,-5.2229,-5.2226,-5.2223,-5.2333,-5.2338,-5.2344,0,0,0,0,0,0,0,0,0,0,0,0,0,-5.1917,-5.1922,-5.2173,-5.2174,-5.2176,-5.2282,-5.2284,-5.2285,-5.2232,-5.2229,-5.2225,-5.2222,-5.2331,-5.2338,-5.2344,0,0,0,0,0,0,0,0,0,0,0,0,0,-5.2027,-5.1923,-5.2173,-5.2162,-5.2162,-5.2282,-5.2284,-5.2285,-5.2233,-5.2229,-5.2224,-5.2221,-5.2329,-5.2337,-5.2345,-5.248,0,0,-5.237,-5.2374,0,0,0,0,0,0,0,0,-5.2021,-5.2036,-5.2162,-5.2163,-5.2164,-5.2239,-5.2233,-5.2351,-5.2234,-5.2206,-5.2223,-5.2218,-5.2305,-5.2315,-5.2345,-5.2486,-5.249,-5.2371,-5.2376,-5.238,-5.2382,0,0,0,0,0,0,0,-5.2013,-5.2031,-5.2216,-5.2164,-5.2165,-5.2151,-5.2162,-5.2255,-5.2278,-5.2208,-5.2205,-5.2218,-5.2304,-5.2337,-5.2347,-5.2492,-5.2371,-5.2378,-5.2383,-5.2387,-5.2748,-5.2753,0,0,0,0,0,0,-5.2006,-5.2025,-5.2213,-5.2219,-5.208,-5.2159,-5.2172,-5.2219,-5.2277,-5.2281,-5.2222,-5.2216,-5.2325,-5.2337,-5.235,-5.2511,-5.238,-5.2387,-5.2392,-5.2744,-5.2749,-5.2754,0,0,0,0,0,0,-5.2001,-5.2023,-5.2208,-5.2122,-5.2144,-5.2168,-5.2222,-5.2223,-5.2256,-5.2287,-5.229,-5.2251,-5.2322,-5.2339,-5.2448,-5.2514,-5.2391,-5.2399,-5.2738,-5.2745,-5.2752,-5.2834,0,0,0,0,0,0,-5.1994,-5.2022,-5.2074,-5.2123,-5.2149,-5.2305,-5.2226,-5.2229,-5.227,-5.2263,-5.2315,-5.2319,-5.232,-5.2436,-5.2457,-5.2523,-5.2405,-5.2732,-5.2741,-5.275,-5.2825,-5.2843,-5.2858,0,0,0,0,0,-5.1985,-5.2092,-5.2077,-5.21,-5.2215,-5.2309,-5.2324,-5.2322,-5.2276,-5.2328,-5.2348,-5.2318,-5.2505,-5.2448,-5.247,-5.254,-5.2728,-5.2739,-5.2749,-5.2818,-5.2839,-5.2857,0,0,0,0,0,0,-5.2049,-5.2098,-5.2082,-5.2209,-5.2255,-5.23,-5.2365,-5.2345,-5.2405,-5.2396,-5.2391,-5.2403,-5.2517,-5.254,-5.2476,-5.2674,-5.2609,-5.2624,-5.2654,-5.2674,-5.269,-5.268,-5.2412,0,0,0,0,0,-5.2078,-5.2152,-5.2191,-5.2299,-5.2323,-5.2341,-5.2382,-5.2377,-5.2425,-5.2444,-5.2472,-5.2519,-5.2587,-5.2633,-5.2698,-5.283,-5.2839,-5.2889,-5.2905,-5.2918,-5.293,-5.3,-5.3022,-5.2788,-5.2788,-5.2788,0,0,-5.2138,-5.2175,-5.2221,-5.2313,-5.2348,-5.2423,-5.2357,-5.244,-5.2495,-5.2456,-5.256,-5.2583,-5.2635,-5.2756,-5.2811,-5.2779,-5.2998,-5.2932,-5.2942,-5.2947,-5.3013,-5.3035,-5.3055,-5.2796,-5.2794,-5.2793,0,0,-5.2286,-5.2322,-5.2415,-5.2452,-5.2507,-5.2518,-5.2541,-5.2589,-5.2603,-5.2709,-5.2681,-5.2747,-5.2866,-5.2903,-5.2938,-5.3102,-5.3076,-5.3124,-5.3207,-5.3275,-5.3293,-5.3309,-5.3365,-5.3385,-5.3137,-5.3137,-5.3137,0,-5.2353,-5.2465,-5.2465,-5.2549,-5.259,-5.256,-5.2654,-5.269,-5.2763,-5.2791,-5.2756,-5.2904,-5.2938,-5.3066,-5.3106,-5.3136,-5.316,-5.3116,-5.3291,-5.3307,-5.3322,-5.3375,-5.3396,-5.3142,-5.3142,-5.3141,-5.3141,0,-5.2544,-5.2623,-5.2692,-5.2764,-5.2813,-5.2901,-5.2913,-5.2963,-5.2955,-5.297,-5.3077,-5.3116,-5.3188,-5.3219,-5.3212,-5.3347,-5.3325,-5.3291,-5.3224,-5.3349,-5.3399,-5.342,-5.315,-5.3148,-5.3146,-5.3145,0,0,-5.2732,-5.2804,-5.2829,-5.2861,-5.292,-5.298,-5.3068,-5.314,-5.3181,-5.3234,-5.3305,-5.3408,-5.3376,-5.3416,-5.3413,-5.3473,-5.3598,-5.3431,-5.3432,-5.3458,-5.3746,-5.3769,-5.3793,-5.3582,-5.3586,-5.3589,-5.374,0,-5.2881,-5.3034,-5.3037,-5.3177,-5.3248,-5.3222,-5.3298,-5.3343,-5.336,-5.3422,-5.3441,-5.3513,-5.3467,-5.349,-5.3549,-5.357,-5.3655,-5.356,-5.3647,-5.365,-5.3631,-5.3819,-5.3844,-5.3984,-5.376,-5.3764,-5.3766,0,-5.3074,-5.3133,-5.3281,-5.333,-5.336,-5.3428,-5.3493,-5.3555,-5.3604,-5.3612,-5.3658,-5.3646,-5.3734,-5.3669,-5.3789,-5.3725,-5.3761,-5.3777,-5.3783,-5.3787,-5.3713,-5.3826,-5.4029,-5.4049,-5.3797,-5.3795,-5.3792,0,-5.3192,-5.3309,-5.3412,-5.3441,-5.3501,-5.3549,-5.3577,-5.3623,-5.3665,-5.3723,-5.375,-5.3818,-5.3854,-5.3906,-5.3912,-5.3864,-5.4033,-5.3968,-5.404,-5.404,-5.4073,-5.407,-5.4282,-5.4103,-5.4103,-5.4102,-5.4102,0,-5.3356,-5.3447,-5.3466,-5.3529,-5.3629,-5.3632,-5.3731,-5.3755,-5.3796,-5.3862,-5.3845,-5.3907,-5.3914,-5.3979,-5.3985,-5.4082,-5.41,-5.4107,-5.4107,-5.4107,-5.4105,-5.4127,-5.4116,-5.4108,-5.4107,-5.4106,-5.4105,0,-5.3503,-5.352,-5.363,-5.3679,-5.3693,-5.3765,-5.3806,-5.3866,-5.3882,-5.3966,-5.3986,-5.4011,-5.4086,-5.4099,-5.4187,-5.4191,-5.4307,-5.4299,-5.429,-5.4288,-5.4358,-5.435,-5.4588,-5.4618,-5.4423,-5.4425,-5.4426,0,-5.3605,-5.3674,-5.3731,-5.3774,-5.3804,-5.3875,-5.3918,-5.3925,-5.3971,-5.4033,-5.4085,-5.4159,-5.4217,-5.4338,-5.4363,-5.4431,-5.4422,-5.4501,-5.4431,-5.4429,-5.4419,-5.4413,-5.4419,-5.4513,-5.4515,-5.4517,-5.4518,0,-5.3783,-5.3788,-5.3852,-5.392,-5.3972,-5.4026,-5.4076,-5.4113,-5.4126,-5.4178,-5.4255,-5.4301,-5.4391,-5.4464,-5.4531,-5.4558,-5.454,-5.454,-5.456,-5.4558,-5.4549,-5.4552,-5.4323,-5.4534,-5.4532,-5.4531,-5.453,-5.4529,-5.3908,-5.3967,-5.4017,-5.4088,-5.4128,-5.4175,-5.4233,-5.4258,-5.4322,-5.4396,-5.4397,-5.448,-5.4528,-5.4617,-5.4649,-5.4713,-5.4688,-5.4717,-5.4724,-5.473,-5.4735,-5.4542,-5.4726,-5.4726,-5.4725,-5.4725,-5.4725,0,-5.4082,-5.4113,-5.4179,-5.425,-5.4307,-5.4288,-5.4343,-5.439,-5.4464,-5.4512,-5.457,-5.4658,-5.4728,-5.476,-5.483,-5.4875,-5.4869,-5.4893,-5.4888,-5.4894,-5.4755,-5.473,-5.4897,-5.4897,-5.4897,-5.4897,-5.4897,-5.4897,-5.4179,-5.4278,-5.4289,-5.4408,-5.4438,-5.452,-5.4553,-5.4596,-5.4634,-5.4733,-5.4791,-5.4812,-5.4853,-5.4925,-5.4989,-5.4996,-5.5021,-5.5049,-5.5052,-5.4921,-5.4904,-5.4887,-5.4863,-5.5055,-5.5055,-5.5185,-5.5186,-5.5187]},{"header":{"parameterUnit":"m.s-1","parameterCategory":1,"la1":30.2991,"la2":30.254,"lo1":-89.0895,"lo2":-89.0444,"dy":0.0017,"dx":0.0017,"nx":28,"ny":28,"refTime":"2024-06-15T09:00:00:Z","depth":0,"parameterNumber":3,"parameterNumberName":"V-component_of_WINDS"},"data":[0,0,0,0,0,0,0,0,0,0,0,0,0,0,0,0,0,0,0,0,0,0,0,0,0,0,0,0,0,0,0,0,0,0,0,0,0,0,0,0,0,0,0,0,0,0,0,0,0,0,0,0,0,0,0,0,0,0,2.8464,2.8464,0,2.854,2.8541,2.8542,2.8604,2.8605,2.8606,2.8606,2.8679,2.8681,2.8682,0,0,0,0,0,0,0,0,0,0,0,0,0,2.8368,2.8369,2.8464,2.8465,2.8466,2.854,2.8541,2.8542,2.8604,2.8605,2.8606,2.8607,2.8679,2.868,2.8682,0,0,0,0,0,0,0,0,0,0,0,0,0,2.8423,2.837,2.8463,2.8506,2.851,2.854,2.8541,2.8542,2.8604,2.8605,2.8606,2.8607,2.8678,2.868,2.8682,2.8674,0,0,2.8688,2.8689,0,0,0,0,0,0,0,0,2.842,2.8426,2.8499,2.8503,2.8508,2.8564,2.8534,2.8586,2.8604,2.8568,2.8606,2.8608,2.864,2.8645,2.8657,2.8678,2.8681,2.8688,2.869,2.869,2.8691,0,0,0,0,0,0,0,2.8416,2.8424,2.8494,2.8499,2.8505,2.852,2.8529,2.8544,2.8597,2.8572,2.8576,2.8585,2.8642,2.8655,2.8659,2.8682,2.8688,2.869,2.8691,2.8692,2.8701,2.87,0,0,0,0,0,0,2.8406,2.842,2.8491,2.8496,2.8466,2.8521,2.8531,2.8545,2.8597,2.8606,2.8584,2.8587,2.8651,2.8657,2.8662,2.8657,2.869,2.8692,2.8693,2.8702,2.8701,2.87,0,0,0,0,0,0,2.8404,2.8412,2.8488,2.8459,2.847,2.8521,2.8537,2.8546,2.8558,2.8607,2.8616,2.8587,2.8652,2.8659,2.8671,2.866,2.8693,2.8695,2.8703,2.8702,2.87,2.8646,0,0,0,0,0,0,2.8401,2.8411,2.8409,2.8459,2.8472,2.8497,2.8536,2.8547,2.8562,2.8568,2.8612,2.862,2.8653,2.8668,2.8673,2.8664,2.8696,2.8704,2.8703,2.8701,2.8649,2.8643,2.8638,0,0,0,0,0,2.8397,2.8389,2.8409,2.8417,2.8471,2.8497,2.8504,2.8543,2.8561,2.8559,2.8591,2.8619,2.8661,2.8669,2.8675,2.8666,2.8705,2.8703,2.8701,2.8652,2.8644,2.8638,0,0,0,0,0,0,2.8334,2.8396,2.8419,2.8427,2.8456,2.8507,2.8506,2.8534,2.8557,2.8561,2.8608,2.8617,2.8625,2.8647,2.8654,2.8662,2.8687,2.8686,2.8647,2.864,2.8635,2.8629,2.8698,0,0,0,0,0,2.8321,2.8339,2.8392,2.8394,2.8408,2.8454,2.8467,2.8495,2.8527,2.8539,2.8571,2.8599,2.8619,2.8631,2.8652,2.8653,2.8663,2.865,2.8644,2.8639,2.8637,2.8641,2.8635,2.8693,2.8693,2.8693,0,0,2.8294,2.8331,2.8338,2.8382,2.8408,2.8424,2.8464,2.8479,2.8491,2.8541,2.8555,2.858,2.8614,2.8621,2.8626,2.864,2.8624,2.8636,2.8632,2.8633,2.8638,2.8632,2.8627,2.8692,2.8692,2.8692,0,0,2.8254,2.8283,2.8289,2.8315,2.8355,2.8387,2.8388,2.8436,2.8455,2.847,2.8509,2.8523,2.8556,2.8579,2.8595,2.8566,2.8593,2.8572,2.8542,2.8544,2.854,2.8536,2.8526,2.8521,2.857,2.857,2.857,0,2.8215,2.8242,2.8287,2.8301,2.8319,2.8368,2.8373,2.8396,2.8439,2.845,2.8466,2.851,2.8536,2.855,2.8543,2.8554,2.8557,2.8566,2.8537,2.8534,2.8531,2.8522,2.8518,2.8567,2.8567,2.8568,2.8568,0,2.8193,2.8211,2.821,2.8255,2.8272,2.8281,2.8327,2.834,2.8367,2.8397,2.8412,2.8446,2.8476,2.8481,2.8506,2.8499,2.8506,2.8529,2.8555,2.8522,2.8514,2.8511,2.8563,2.8564,2.8565,2.8566,0,0,2.8113,2.8184,2.8183,2.8204,2.8253,2.8267,2.8279,2.831,2.8319,2.8348,2.8359,2.8387,2.8409,2.8427,2.8456,2.8458,2.8434,2.8481,2.8482,2.8471,2.8428,2.841,2.8405,2.8453,2.8452,2.8452,2.8425,0,2.808,2.8106,2.8148,2.8159,2.8176,2.8224,2.8234,2.8264,2.8293,2.8311,2.8341,2.8361,2.8388,2.84,2.8404,2.8436,2.8426,2.8438,2.8462,2.8462,2.8451,2.8401,2.8383,2.8356,2.8422,2.8422,2.8421,0,2.8045,2.8074,2.8088,2.8137,2.8146,2.8155,2.8187,2.8204,2.824,2.826,2.8282,2.8314,2.8328,2.8353,2.8373,2.838,2.8393,2.841,2.841,2.8413,2.8439,2.8403,2.8348,2.8344,2.8417,2.8417,2.8417,0,2.7986,2.8028,2.8042,2.8059,2.8117,2.8122,2.8146,2.8183,2.8199,2.8227,2.8238,2.8266,2.8281,2.8302,2.8341,2.8355,2.8356,2.8384,2.8373,2.8372,2.837,2.837,2.8316,2.8378,2.8379,2.8379,2.8379,0,2.7945,2.7951,2.8017,2.8025,2.8034,2.8082,2.8089,2.8117,2.815,2.8164,2.8206,2.8218,2.8269,2.8287,2.8317,2.8329,2.8336,2.8352,2.836,2.8348,2.8346,2.8356,2.8359,2.8378,2.8378,2.8378,2.8378,0,2.7879,2.7924,2.7942,2.7997,2.8011,2.8014,2.806,2.807,2.8102,2.8119,2.8126,2.8175,2.8199,2.824,2.8274,2.8295,2.8301,2.8314,2.8289,2.8294,2.8281,2.8281,2.8232,2.8228,2.8292,2.8291,2.8291,0,2.785,2.7857,2.7913,2.7926,2.795,2.7971,2.7989,2.8036,2.8053,2.8095,2.8099,2.8127,2.8151,2.8186,2.8224,2.825,2.8265,2.8246,2.8269,2.8258,2.8265,2.8264,2.8265,2.824,2.8239,2.8238,2.8238,0,2.7794,2.7816,2.7841,2.7874,2.7895,2.7922,2.7952,2.796,2.8014,2.8031,2.8057,2.8075,2.8112,2.8139,2.8171,2.8195,2.8225,2.8231,2.823,2.8217,2.8202,2.8211,2.8274,2.8231,2.8232,2.8232,2.8233,2.8233,2.7746,2.7754,2.7796,2.7823,2.7851,2.7878,2.789,2.7925,2.7948,2.7983,2.8009,2.8033,2.8069,2.8117,2.8139,2.8158,2.8171,2.817,2.8169,2.8168,2.8164,2.82,2.8164,2.8164,2.8164,2.8164,2.8164,0,2.7692,2.7721,2.7746,2.7787,2.7808,2.7838,2.7873,2.7888,2.7909,2.7941,2.7965,2.7995,2.8021,2.8062,2.8092,2.8099,2.8113,2.8105,2.8104,2.8109,2.8149,2.8147,2.8092,2.8092,2.8092,2.8092,2.8092,2.8092,2.7666,2.7683,2.771,2.7741,2.777,2.7796,2.7813,2.7838,2.7865,2.7897,2.792,2.7947,2.7983,2.8016,2.8041,2.8052,2.8061,2.8048,2.8063,2.81,2.8106,2.8113,2.8111,2.805,2.805,2.8022,2.8022,2.8022]}]]